Meteo pe oră la Dabczyn

Astăzi, 17 Aprilie, Sâmbătă

Timp Temperatura Precipitaţii Vânt Presiune Umiditate
00:00 +7°C° 0.2 mm 3 m/s 749 mmHg 97%
01:00 +5°C° 0.2 mm 3 m/s 749 mmHg 97%
02:00 +5°C° 0.2 mm 3 m/s 749 mmHg 97%
03:00 +5°C° 0 mm 3 m/s 749 mmHg 97%
04:00 +4°C° 0 mm 3 m/s 750 mmHg 97%
05:00 +4°C° 0 mm 2 m/s 750 mmHg 97%
06:00 +5°C° 0 mm 2 m/s 750 mmHg 95%
07:00 +5°C° 0 mm 3 m/s 750 mmHg 93%
08:00 +7°C° 0 mm 3 m/s 751 mmHg 90%
09:00 +8°C° 0 mm 3 m/s 751 mmHg 87%
10:00 +9°C° 0 mm 3 m/s 751 mmHg 84%
11:00 +10°C° 0 mm 3 m/s 751 mmHg 80%
12:00 +11°C° 0.2 mm 3 m/s 751 mmHg 75%
13:00 +11°C° 0.2 mm 3 m/s 751 mmHg 70%
14:00 +12°C° 0.2 mm 3 m/s 752 mmHg 65%
15:00 +13°C° 0.2 mm 3 m/s 751 mmHg 64%
16:00 +13°C° 0.2 mm 3 m/s 751 mmHg 63%
17:00 +13°C° 0.2 mm 3 m/s 751 mmHg 62%
18:00 +12°C° 0.1 mm 2 m/s 752 mmHg 70%
19:00 +10°C° 0.1 mm 2 m/s 752 mmHg 77%
20:00 +8°C° 0.1 mm 2 m/s 752 mmHg 85%
21:00 +7°C° 0 mm 2 m/s 752 mmHg 87%
22:00 +7°C° 0 mm 2 m/s 752 mmHg 90%
23:00 +6°C° 0 mm 2 m/s 752 mmHg 92%

Mâine, 18 Aprilie, Duminică

Timp Temperatura Precipitaţii Vânt Presiune Umiditate
00:00 +6°C° 0 mm 2 m/s 753 mmHg 93%
01:00 +6°C° 0 mm 1 m/s 753 mmHg 93%
02:00 +6°C° 0 mm 1 m/s 753 mmHg 94%
03:00 +6°C° 0 mm 1 m/s 753 mmHg 93%
04:00 +6°C° 0 mm 1 m/s 753 mmHg 93%
05:00 +4°C° 0 mm 0 m/s 752 mmHg 93%
06:00 +6°C° 0 mm 0 m/s 752 mmHg 90%
07:00 +8°C° 0 mm 1 m/s 752 mmHg 87%
08:00 +9°C° 0 mm 1 m/s 752 mmHg 83%
09:00 +10°C° 0 mm 1 m/s 752 mmHg 81%
10:00 +10°C° 0 mm 2 m/s 752 mmHg 78%
11:00 +13°C° 0 mm 2 m/s 752 mmHg 76%
12:00 +12°C° 0.3 mm 3 m/s 752 mmHg 75%
13:00 +13°C° 0.3 mm 3 m/s 752 mmHg 74%
14:00 +13°C° 0.3 mm 4 m/s 752 mmHg 73%
15:00 +13°C° 0.2 mm 4 m/s 752 mmHg 74%
16:00 +13°C° 0.2 mm 4 m/s 752 mmHg 75%
17:00 +12°C° 0.2 mm 4 m/s 752 mmHg 76%
18:00 +11°C° 0.1 mm 4 m/s 752 mmHg 79%
19:00 +10°C° 0.1 mm 3 m/s 752 mmHg 83%
20:00 +9°C° 0.1 mm 3 m/s 753 mmHg 87%
21:00 +9°C° 0.1 mm 3 m/s 753 mmHg 87%
22:00 +9°C° 0.1 mm 3 m/s 753 mmHg 87%
23:00 +9°C° 0.1 mm 3 m/s 753 mmHg 87%

Poimâine, 19 Aprilie, Luni

Timp Temperatura Precipitaţii Vânt Presiune Umiditate
00:00 +8°C° 0 mm 3 m/s 753 mmHg 89%
01:00 +7°C° 0 mm 3 m/s 753 mmHg 91%
02:00 +5°C° 0 mm 3 m/s 753 mmHg 93%
03:00 +5°C° 0 mm 3 m/s 753 mmHg 94%
04:00 +4°C° 0 mm 3 m/s 753 mmHg 95%
05:00 +3°C° 0 mm 3 m/s 752 mmHg 96%
06:00 +4°C° 0 mm 4 m/s 752 mmHg 92%
07:00 +5°C° 0 mm 4 m/s 752 mmHg 89%
08:00 +6°C° 0 mm 4 m/s 752 mmHg 86%
09:00 +7°C° 0 mm 4 m/s 752 mmHg 81%
10:00 +10°C° 0 mm 4 m/s 752 mmHg 77%
11:00 +11°C° 0 mm 4 m/s 752 mmHg 72%
12:00 +11°C° 0.1 mm 4 m/s 752 mmHg 70%
13:00 +11°C° 0.1 mm 4 m/s 752 mmHg 67%
14:00 +12°C° 0.1 mm 4 m/s 752 mmHg 65%
15:00 +10°C° 0.1 mm 5 m/s 751 mmHg 66%
16:00 +10°C° 0.1 mm 5 m/s 751 mmHg 67%
17:00 +10°C° 0.1 mm 5 m/s 751 mmHg 68%
18:00 +9°C° 0 mm 5 m/s 751 mmHg 71%
19:00 +7°C° 0 mm 4 m/s 751 mmHg 75%
20:00 +6°C° 0 mm 4 m/s 751 mmHg 79%
21:00 +7°C° 0 mm 3 m/s 751 mmHg 81%
22:00 +5°C° 0 mm 3 m/s 751 mmHg 84%
23:00 +5°C° 0 mm 3 m/s 750 mmHg 87%

20 Aprilie, Marţi

Timp Temperatura Precipitaţii Vânt Presiune Umiditate
00:00 +5°C° 0 mm 3 m/s 750 mmHg 88%
01:00 +6°C° 0 mm 2 m/s 750 mmHg 88%
02:00 +6°C° 0 mm 2 m/s 749 mmHg 89%
03:00 +6°C° 0 mm 2 m/s 749 mmHg 90%
04:00 +6°C° 0 mm 2 m/s 749 mmHg 91%
05:00 +6°C° 0 mm 2 m/s 749 mmHg 92%
06:00 +6°C° 0.1 mm 2 m/s 748 mmHg 89%
07:00 +7°C° 0.1 mm 3 m/s 748 mmHg 86%
08:00 +8°C° 0.1 mm 3 m/s 748 mmHg 83%
09:00 +8°C° 0.1 mm 3 m/s 748 mmHg 79%
10:00 +8°C° 0.1 mm 3 m/s 748 mmHg 75%
11:00 +9°C° 0.1 mm 3 m/s 747 mmHg 70%
12:00 +9°C° 0 mm 3 m/s 747 mmHg 68%
13:00 +9°C° 0 mm 3 m/s 747 mmHg 65%
14:00 +10°C° 0 mm 4 m/s 746 mmHg 63%
15:00 +10°C° 0.1 mm 4 m/s 746 mmHg 63%
16:00 +10°C° 0.1 mm 4 m/s 745 mmHg 63%
17:00 +10°C° 0.1 mm 4 m/s 745 mmHg 63%
18:00 +9°C° 0 mm 3 m/s 745 mmHg 69%
19:00 +7°C° 0 mm 3 m/s 745 mmHg 75%
20:00 +5°C° 0 mm 3 m/s 744 mmHg 81%
21:00 +5°C° 0 mm 3 m/s 744 mmHg 84%
22:00 +4°C° 0 mm 3 m/s 744 mmHg 87%
23:00 +3°C° 0 mm 3 m/s 744 mmHg 90%

21 Aprilie, Miercuri

Timp Temperatura Precipitaţii Vânt Presiune Umiditate
00:00 +3°C° 0 mm 3 m/s 743 mmHg 91%
01:00 +3°C° 0 mm 3 m/s 743 mmHg 93%
02:00 +3°C° 0 mm 3 m/s 743 mmHg 94%
03:00 +3°C° 0 mm 3 m/s 743 mmHg 94%
04:00 +3°C° 0 mm 3 m/s 742 mmHg 93%
05:00 +3°C° 0 mm 4 m/s 742 mmHg 93%
06:00 +4°C° 0 mm 4 m/s 742 mmHg 89%
07:00 +3°C° 0 mm 5 m/s 742 mmHg 86%
08:00 +3°C° 0 mm 5 m/s 742 mmHg 82%
09:00 +5°C° 0.1 mm 5 m/s 742 mmHg 82%
10:00 +4°C° 0.1 mm 6 m/s 743 mmHg 82%
11:00 +5°C° 0.1 mm 6 m/s 743 mmHg 82%
12:00 +7°C° 0.2 mm 5 m/s 743 mmHg 78%
13:00 +7°C° 0.2 mm 5 m/s 743 mmHg 74%
14:00 +8°C° 0.2 mm 5 m/s 743 mmHg 70%
15:00 +9°C° 0.1 mm 5 m/s 744 mmHg 68%
16:00 +9°C° 0.1 mm 5 m/s 744 mmHg 66%
17:00 +9°C° 0.1 mm 5 m/s 744 mmHg 64%
18:00 +8°C° 0 mm 4 m/s 745 mmHg 68%
19:00 +8°C° 0 mm 3 m/s 745 mmHg 72%
20:00 +6°C° 0 mm 2 m/s 745 mmHg 77%
21:00 +6°C° 0 mm 2 m/s 746 mmHg 79%
22:00 +5°C° 0 mm 2 m/s 746 mmHg 81%
23:00 +5°C° 0 mm 2 m/s 746 mmHg 83%

22 Aprilie, Joi

Timp Temperatura Precipitaţii Vânt Presiune Umiditate
00:00 +4°C° 0 mm 2 m/s 747 mmHg 84%
01:00 +4°C° 0 mm 2 m/s 747 mmHg 85%
02:00 +4°C° 0 mm 2 m/s 747 mmHg 86%
03:00 +4°C° 0 mm 2 m/s 747 mmHg 85%
04:00 +4°C° 0 mm 2 m/s 747 mmHg 84%
05:00 +4°C° 0 mm 2 m/s 747 mmHg 83%
06:00 +6°C° 0 mm 2 m/s 748 mmHg 79%
07:00 +7°C° 0 mm 3 m/s 748 mmHg 75%
08:00 +9°C° 0 mm 3 m/s 748 mmHg 72%
09:00 +10°C° 0 mm 3 m/s 749 mmHg 66%
10:00 +12°C° 0 mm 4 m/s 749 mmHg 60%
11:00 +13°C° 0 mm 4 m/s 749 mmHg 55%
12:00 +14°C° 0 mm 4 m/s 749 mmHg 53%
13:00 +15°C° 0 mm 4 m/s 749 mmHg 51%
14:00 +17°C° 0 mm 4 m/s 749 mmHg 49%
15:00 +17°C° 0 mm 4 m/s 749 mmHg 53%
16:00 +16°C° 0 mm 3 m/s 749 mmHg 58%
17:00 +16°C° 0 mm 2 m/s 749 mmHg 62%
18:00 +14°C° 0 mm 3 m/s 749 mmHg 65%
19:00 +13°C° 0 mm 3 m/s 749 mmHg 68%
20:00 +12°C° 0 mm 3 m/s 749 mmHg 71%
21:00 +11°C° 0 mm 4 m/s 749 mmHg 73%
22:00 +10°C° 0 mm 4 m/s 749 mmHg 76%
23:00 +10°C° 0 mm 4 m/s 749 mmHg 79%
Arată mai mult

Formular de consimțământ

Meteoprog și furnizorii noștri de servicii pot stoca și accesa date personale, precum cookies, identificatori de dispozitiv sau alte tehnologii similare pe dispozitivul dumneavoastră și procesa astfel de date pentru a personaliza conținutul și reclamele, dar și pentru a oferi caracteristici de social media și pentru a analiza traficul.

  • Stocarea și/sau accesarea informațiilor pe dispozitivul dumneavoastră

    Cookies, identificatori de dispozitiv sau alte informații pot fi stocate sau accesate pe dispozitiv în scopurile indicate mai sus.

  • Reclame și conținut personalizat, evaluarea reclamelor și a conținutului, informații despre audiențe și dezvoltarea produselor

    Reclamele și conținutul pot fi personalizate pe baza unui profil. Pot fi adăugate date suplimentare pentru a personaliza mai bine reclamele și conținutul. Performanța reclamelor și conținutului poate fi măsurată. Pot fi obținute informații despre utilizatorii care au văzut reclamele și conținutul. Aceste date pot fi utilizate pentru a dezvolta sau îmbunătăți experiența utilizatorilor, sistemele și software-ul.

Dând clic pe ‘Sunt de acord’, permiteți utilizarea cookie-urilor menționate, a identificatorilor de dispozitiv, balizelor web sau altor tehnologii similare. Setările pot fi modificate din browser-ul dispozitivului dumneavoastră.

În anumite scopuri, interesele legitime pot prima asupra consimțământului. Puteți citi mai multe informații în acest sens în Politica privind Confidențialitatea Datelor și Cookie.